This is the latest recevied weather packets stored in our database for station/object F4GSP-4. If no packets are shown the sender has not sent any weather packets the latest 10 day(s).
| Time | Temp. | Humidity | Pressure | Rain* | Wind** | Luminosity | Snow |
|---|---|---|---|---|---|---|---|
| 1778108897 | 4.44° C | 60% | 1023.7 hPa | - | - | - | - |
| 1778107997 | 4.44° C | 60% | 1023.9 hPa | - | - | - | - |
| 1778107097 | 3.89° C | 59% | 1023.8 hPa | - | - | - | - |
| 1778106197 | 3.89° C | 59% | 1023.6 hPa | - | - | - | - |
| 1778105297 | 3.89° C | 59% | 1023.5 hPa | - | - | - | - |
| 1778104397 | 3.89° C | 59% | 1023.3 hPa | - | - | - | - |
| 1778103497 | 3.89° C | 59% | 1023.3 hPa | - | - | - | - |
| 1778102596 | 4.44° C | 59% | 1023.2 hPa | - | - | - | - |
| 1778101696 | 4.44° C | 58% | 1023.3 hPa | - | - | - | - |
| 1778100796 | 5° C | 58% | 1023.3 hPa | - | - | - | - |
| 1778099896 | 5.56° C | 58% | 1023.1 hPa | - | - | - | - |
| 1778098996 | 5.56° C | 58% | 1023 hPa | - | - | - | - |
| 1778098096 | 5.56° C | 58% | 1023 hPa | - | - | - | - |
| 1778097195 | 6.11° C | 58% | 1022.9 hPa | - | - | - | - |
| 1778096295 | 6.11° C | 58% | 1022.6 hPa | - | - | - | - |
| 1778095395 | 6.67° C | 58% | 1022.4 hPa | - | - | - | - |
| 1778094495 | 7.22° C | 58% | 1022.2 hPa | - | - | - | - |
| 1778093595 | 7.22° C | 58% | 1022.1 hPa | - | - | - | - |
| 1778092694 | 7.78° C | 58% | 1022.1 hPa | - | - | - | - |
| 1778091794 | 7.78° C | 57% | 1021.8 hPa | - | - | - | - |
| 1778090894 | 8.33° C | 57% | 1021.8 hPa | - | - | - | - |
| 1778089994 | 8.89° C | 57% | 1021.7 hPa | - | - | - | - |
| 1778089094 | 8.89° C | 57% | 1021.5 hPa | - | - | - | - |
| 1778088194 | 8.89° C | 57% | 1021.3 hPa | - | - | - | - |
| 1778087293 | 8.33° C | 56% | 1021.3 hPa | - | - | - | - |
* Rain since midnight (hover to see other rain measurements)
** Current wind speed in m/s (hover to see current wind gust speed)